sat.trackr.live / text

‹ back to catalog

XMM-NEWTON

NORAD 25989 · 1999-066A

PAYLOAD ACTIVE UNKNOWN

§ Identity

Operator
Country
ESA
Launch date
1999-12-10
Launch site
FRGUI
Launch vehicle
Mass (kg)
RCS (m²)
10.02

Purposes: science

External: N2YO · Heavens-Above · Gunter

§ Orbital elements

Epoch: 2026-09-20T02:15:28.951776Z

Period
2,872.77 min
Inclination
63.9890°
Eccentricity
0.4648505
Mean motion
0.50125912 rev/d
Perigee alt
29,445.4 km
Apogee alt
91,680.7 km
Semi-major
66,941.2 km
B*
0.0000e+0
RAAN
281.7554°
Arg perigee
63.1920°
Mean anomaly
0.1280°
Rev number
2,348

§ Raw data

XMM-NEWTON1 25989U 99066A   26263.09408509  .00000133  00000+0  00000+0 0  99922 25989  63.9890 281.7554 4648505  63.1920   0.1280  0.50125912 23488

JSON: /api/v1/satellites/25989 · /tle

For live sub-satellite position, see the globe view (requires WebGL).

§ Visibility from observer

Set your observer location to see the next 7 days of passes ≥ 10°. The values pass through the URL so the page stays shareable.

No JS? Fill the form by hand. The geolocation button needs JavaScript.